India Forums Logo

Geet - Hui Sabse Parayee

India Forums > Forum Index > Geet - Hui Sabse Parayee
Geet is a happy, lively, fun loving girl who hails from a small town in Punjab. She belongs to a close-knit, traditionalist family which upholds honor, respect and dignity above all else.
<< | 1 | 2 | 3 | 4 | 5 | 6 | 7 | 8 | 9 | 10 | 11 | 12 | 13 | 14 | 15 | 16 | 17 | 18 | 19 | ... >>
TIDTopic SubjectStart DateLast Entry
1402000Maan's Word for Geet5/25/2010 5:43:31 AM5/25/2010 7:38:56 AM
1402029post from gurmeet's blog5/25/2010 6:42:54 AM5/25/2010 6:42:54 AM
1402040Gurmeet's short pants*drools*5/25/2010 7:04:53 AM6/7/2010 10:37:37 AM
1402080Hey beautiful ppl5/25/2010 8:24:07 AM5/25/2010 11:32:44 AM
1402088channi???5/25/2010 8:41:42 AM5/25/2010 9:45:40 AM
1402202NaiNtara Knows Maan5/25/2010 10:11:36 AM5/26/2010 4:34:55 AM
14022185/25 Geet Episode - highlights completed5/25/2010 10:25:50 AM5/26/2010 9:01:37 AM
1402240Maan, Vade Veer Ji and Geet5/25/2010 10:44:45 AM5/26/2010 3:08:51 AM
140224225th May-Geet-HQ Video-ONline/Download5/25/2010 10:45:58 AM5/26/2010 2:40:47 AM
1402277maan IS affected badly..pg4 27th may5/25/2010 11:20:56 AM5/29/2010 9:18:07 PM
1402283Predictions from 25/05/20105/25/2010 11:27:20 AM5/25/2010 4:33:05 PM
1402321SOO REAL!5/25/2010 11:57:57 AM5/26/2010 7:20:59 AM
1402334possible story ahead5/25/2010 12:11:13 PM5/26/2010 12:51:49 AM
1402379GEET U MAKE MADE ME CRY TODAY5/25/2010 12:58:50 PM5/25/2010 4:41:55 PM
1402432For those who love Maan-Geet BG tune ^_^5/25/2010 2:25:44 PM5/29/2010 2:59:35 PM
1402567Maan seems to be dev's big brother5/25/2010 7:51:02 PM5/25/2010 10:40:56 PM
1402587GOTW - Connection~ : - )5/25/2010 9:10:31 PM6/6/2010 3:26:45 PM
1402605Recap till now..5/25/2010 10:07:30 PM5/26/2010 4:00:57 AM
1402606This my guess.5/25/2010 10:11:22 PM5/25/2010 10:11:22 PM
1402674Drashti's rendezvous with God5/26/2010 12:36:06 AM9/2/2010 10:50:12 AM
1402708One Shot - Love is a Battlefield5/26/2010 1:30:30 AM8/25/2010 5:45:32 AM
1402710Maan's voice..5/26/2010 1:30:47 AM5/26/2010 11:49:52 PM
1402833No Repeats at 11:30 pm5/26/2010 5:16:38 AM5/26/2010 5:16:38 AM
1402834AAAHHAAN-tumne mera jeena haram kardiya5/26/2010 5:16:52 AM5/26/2010 12:18:28 PM
1402835NO REPEATS AT 11:30 PM.....5/26/2010 5:18:56 AM5/26/2010 5:37:10 AM
1402845Support Geet with your best wishes and prayers!5/26/2010 5:39:43 AM5/26/2010 5:39:43 AM
1402907Maan hates Naintara....5/26/2010 7:16:38 AM5/26/2010 6:37:46 PM
1402934i am soo confused please help!5/26/2010 7:58:01 AM5/31/2010 7:35:33 AM
1403011Strange background music of Geet's bro5/26/2010 9:48:48 AM5/26/2010 9:48:48 AM
140306526th May-Geet-HQ Video-ONline/Download5/26/2010 10:43:27 AM5/27/2010 1:35:48 AM
1403081Amritsar journey ended without Maneet scenes5/26/2010 10:57:37 AM5/27/2010 12:49:30 AM
1403155POLL, future predictions?!5/26/2010 12:26:26 PM5/30/2010 7:12:49 PM
1403217What i love about Geet and hated about Maaan!!5/26/2010 1:38:15 PM5/26/2010 6:31:04 PM
1403223Brijjj in Loooveeee...5/26/2010 1:53:04 PM5/27/2010 4:32:56 PM
1403270Maan is Dev's elder Bro (99% confirmed)5/26/2010 2:59:03 PM5/27/2010 6:05:50 AM
1403366guess when their next meeting?5/26/2010 6:44:54 PM5/27/2010 6:10:26 AM
1403428Written Update May 26 |not completed|5/26/2010 10:03:04 PM5/27/2010 7:24:23 AM
1403439my opinion (new here)5/26/2010 10:45:41 PM5/27/2010 1:21:59 AM
1403649wow5/27/2010 7:12:36 AM5/28/2010 9:34:53 AM
1403680Request for CVs regarding Maneet5/27/2010 8:16:07 AM5/27/2010 11:09:47 AM
1403689if dev will come i will not watch the show5/27/2010 8:37:45 AM5/27/2010 9:29:57 AM
1403715reason 4 Gurmeet aka Maan absence5/27/2010 9:17:36 AM5/28/2010 11:10:31 AM
14037955/27 - Geet Episode Update5/27/2010 10:32:11 AM5/28/2010 8:58:10 AM
140381327th May-Geet--HQVideo/Online/Download5/27/2010 10:44:16 AM5/27/2010 1:54:17 PM
1403826Pagal mujhko kar gayiiee5/27/2010 10:58:09 AM5/28/2010 1:35:23 AM
1403831Bechare Munshi ji5/27/2010 11:05:49 AM5/29/2010 12:53:26 AM
1403832How will Maan and Geet cm 2gther when...5/27/2010 11:08:24 AM5/27/2010 11:14:27 AM
1403907What happened to Geet's abortion papers..???5/27/2010 12:28:18 PM5/28/2010 9:02:48 AM
1403913really important5/27/2010 12:34:37 PM5/27/2010 12:38:18 PM
1403919Mohinder's love for Geet5/27/2010 12:42:03 PM5/27/2010 2:08:30 PM
1403923there should b a topic5/27/2010 12:51:47 PM6/1/2010 2:24:42 PM
1403929Indian women and their children.5/27/2010 1:01:26 PM5/28/2010 12:53:53 AM
1403934HA HA LOVE U MANNEET5/27/2010 1:03:20 PM5/27/2010 1:03:20 PM
1404026Once again Geet took Maan's "seekh"!5/27/2010 3:39:40 PM5/27/2010 4:38:35 PM
1404063Where's Maan going?5/27/2010 5:31:48 PM5/28/2010 4:29:21 AM
1404074Mann & Geet ''Maneet'' VM5/27/2010 5:59:43 PM6/1/2010 8:35:47 AM
1404080Maan is affecting ME5/27/2010 6:12:39 PM5/28/2010 6:46:01 AM
1404153Rajji supports Gurvinder5/27/2010 9:54:02 PM5/27/2010 9:54:02 PM
1404209jhoothi geet5/28/2010 12:23:22 AM5/29/2010 11:52:22 AM
1404220mr.attitude's loosing his heart5/28/2010 12:31:42 AM5/29/2010 4:53:05 AM
1404223geet to go off air:s5/28/2010 12:35:51 AM5/28/2010 11:13:05 AM
1404260daily soaps?5/28/2010 2:01:15 AM5/28/2010 2:01:15 AM
1404365My first call at the Golden Temple5/28/2010 5:15:01 AM5/28/2010 5:55:48 AM
1404383'Geet' Likely To Go Off Air (Article)5/28/2010 6:16:46 AM5/29/2010 1:32:13 AM
1404398Geet The best show-lets vote5/28/2010 6:41:31 AM5/28/2010 7:16:55 AM
1404544IRONY-hum kabhie nahi milengay5/28/2010 10:42:51 AM5/30/2010 7:28:44 PM
140454628th May-Geet--HQVideo/Online/Download5/28/2010 10:43:31 AM5/28/2010 5:12:18 PM
1404555"agar bhul jaate toh insaan ban jaate"5/28/2010 10:54:41 AM5/29/2010 7:52:33 AM
1404561Oi hoi! Maan wearing white :D5/28/2010 11:00:39 AM5/29/2010 3:50:53 AM
140456328TH May 2010 - Geet5/28/2010 11:02:15 AM5/28/2010 8:54:38 PM
1404569Monday's going to be lethal5/28/2010 11:07:09 AM5/29/2010 9:10:04 PM
1404572truly great acting by geet.5/28/2010 11:12:21 AM5/28/2010 11:12:21 AM
1404576i just loved d dialogue5/28/2010 11:15:18 AM5/29/2010 12:19:49 AM
1404589Geet should run away...5/28/2010 11:37:50 AM5/28/2010 11:04:17 PM
1404609will geet elope to save her child?5/28/2010 12:03:27 PM5/28/2010 10:27:39 PM
<< | 1 | 2 | 3 | 4 | 5 | 6 | 7 | 8 | 9 | 10 | 11 | 12 | 13 | 14 | 15 | 16 | 17 | 18 | 19 | ... >>